Location: Bonny Doon Airfield
(37.0704°N, 122.1252°W)
Time: 17:28:32
(UTC-07:00)

BREEZE M DEB (TANK) - Visible Passes

Search period start: 02 August 2015 00:00
Search period end: 12 August 2015 00:00
Orbit: 310 x 13786 km, 49.6° (Epoch: 01 August)

Date Brightness Start Highest point End Pass type
(mag) Time Alt. Az. Time Alt. Az. Time Alt. Az.
02 Aug 8.5 18:52:44 10° WNW 20:26:25 84° NNE 21:47:34 17° SE visible
02 Aug 8.8 23:57:21 10° NW 01:34:58 27° W 02:05:39 13° SW visible
03 Aug 8.4 20:56:24 10° NW 22:49:41 67° WSW 23:36:13 27° S visible
04 Aug 8.6 18:07:22 10° WNW 19:27:49 78° NNE 21:06:48 10° SE visible
04 Aug 8.7 23:06:09 10° NW 00:50:18 35° WSW 01:24:55 16° SW visible
05 Aug 8.4 20:09:33 10° WNW 21:59:22 75° SW 22:55:33 23° SSE visible
06 Aug 8.6 22:16:34 10° NW 00:04:44 43° WSW 00:44:19 18° SSW visible
07 Aug 8.5 19:23:14 10° WNW 21:06:46 83° SW 22:15:00 17° SSE visible
08 Aug 9.1 00:39:59 10° NW 01:58:15 14° W 02:13:59 10° WSW visible
08 Aug 8.6 21:28:07 10° NW 23:18:06 51° WSW 00:03:49 18° SSW visible
09 Aug 8.6 18:37:20 10° WNW 20:11:42 90° NE 21:34:34 11° SE visible
09 Aug 8.9 23:43:18 10° NW 01:14:12 21° W 01:43:23 10° WSW visible
10 Aug 8.5 20:40:30 10° NW 22:30:05 60° WSW 23:23:25 16° S visible
11 Aug 8.7 17:51:49 10° WNW 19:14:27 83° NNE 20:50:17 10° SE visible
